sat.trackr.live / text

‹ back to catalog

ONEWEB-0208

NORAD 48243 · 2021-031AK

PAYLOAD ACTIVE UNKNOWN

§ Identity

Operator
Country
UK
Launch date
2021-04-25
Launch site
VOSTO
Launch vehicle
Mass (kg)
RCS (m²)

Purposes: comms

External: N2YO · Heavens-Above · Gunter

§ Orbital elements

Epoch: 2026-09-09T22:54:27.561888Z

Period
109.55 min
Inclination
87.8905°
Eccentricity
0.0001664
Mean motion
13.14503007 rev/d
Perigee alt
1,204.5 km
Apogee alt
1,207.1 km
Semi-major
7,583.9 km
B*
5.4076e-4
RAAN
272.8010°
Arg perigee
81.5673°
Mean anomaly
278.5646°
Rev number
25,944

§ Raw data

ONEWEB-02081 48243U 21031AK  26252.95448567  .00000213  00000+0  54076-3 0  99932 48243  87.8905 272.8010 0001664  81.5673 278.5646 13.14503007259443

JSON: /api/v1/satellites/48243 · /tle

For live sub-satellite position, see the globe view (requires WebGL).

§ Visibility from observer

Set your observer location to see the next 7 days of passes ≥ 10°. The values pass through the URL so the page stays shareable.

No JS? Fill the form by hand. The geolocation button needs JavaScript.